Location: Chuathbaluk
(61.5726°N, 159.2454°W)
Time: 23:47:20
(UTC+00:00)

Transit 2A - Pass Details

Date: 30 November 2020
Orbit: 598 x 960 km, 66.7° (Epoch: 20 January)

Event Time Altitude Azimuth Distance (km) Brightness Sun altitude
Rises 13:32:12 0° 307° (NW) 3,332 - -39.0°
Reaches altitude 10° 13:36:14 10° 279° (W) 2,301 - -38.6°
Maximum altitude 13:38:14 12° 257° (WSW) 2,099 - -38.4°
Drops below altitude 10° 13:40:11 10° 234° (SW) 2,203 - -38.2°
Sets 13:43:51 0° 204° (SSW) 3,031 - -37.8°
